Williston, ND

4:12 PM CDT on August 18, 2019 (GMT -0500)
Sloulin International

Weather History for KISN - May, 2019

Change the Weather History Date:

Wednesday, May 22, 2019

  Actual Average Record
Temperature  
Mean Temperature 50 °F 56 °F  
Max Temperature 63 °F 69 °F 106 °F (1980)
Min Temperature 37 °F 43 °F 28 °F (1963)
Degree Days  
Heating Degree Days 15 9  
Month to date heating degree days 353 276  
Since 1 July heating degree days 9254 8801  
Cooling Degree Days 0 0  
Month to date cooling degree days 0 0  
Year to date cooling degree days 0 1  
Growing Degree Days 6 (Base 50)    
Moisture  
Dew Point 34 °F    
Average Humidity 48    
Maximum Humidity 66    
Minimum Humidity 30    
Precipitation  
Precipitation 0.00 in 0.07 in 1.49 in (1903)
Month to date precipitation 0.79 1.26  
Year to date precipitation 3.45 3.95  
Sea Level Pressure  
Sea Level Pressure 29.83 in    
Wind  
Wind Speed 12 mph (NE)    
Max Wind Speed 24 mph    
Max Gust Speed 44 mph    
Visibility 10 miles    
Events      
T = Trace of Precipitation, MM = Missing Value Source: NWS Daily Summary

Daily Weather History Graph

Daily Weather History Graph

Search for Another Location

Airport or City:

Astronomy

May. 22, 2019 Rise Set
Actual Time 6:07 AM CDT 9:35 PM CDT
Civil Twilight 5:28 AM CDT 10:14 PM CDT
Nautical Twilight 4:37 AM CDT 11:05 PM CDT
Astronomical Twilight 3:29 AM CDT 12:15 AM CDT
Moon 12:36 AM CDT (5/22) 9:13 AM CDT (5/22)
Length of Visible Light 16h 45m
Length of Day
15h 28m
Waning Gibbous, 85% of the Moon is Illuminated
May 22
Waning Gibbous
May 26
Last Quarter
Jun 3
New
Jun 10
First Quarter
Jun 17
Full

Hourly Weather History & Observations

Time (CDT) Temp. Dew Point Humidity Pressure Visibility Wind Dir Wind Speed Gust Speed Precip Events Conditions
12:52 AM 52.0 °F 34.0 °F 50% 29.84 in 10.0 mi North 8.1 mph - N/A   Clear
1:52 AM 53.1 °F 32.0 °F 45% 29.81 in 10.0 mi North 9.2 mph - N/A   Clear
2:52 AM 51.1 °F 32.0 °F 48% 29.81 in 10.0 mi North 10.4 mph - N/A   Clear
3:52 AM 51.1 °F 33.1 °F 50% 29.79 in 10.0 mi North 12.7 mph - N/A   Clear
4:52 AM 48.9 °F 33.1 °F 54% 29.78 in 10.0 mi North 12.7 mph - N/A   Clear
5:52 AM 51.1 °F 33.1 °F 50% 29.77 in 10.0 mi NNE 12.7 mph - N/A   Clear
6:52 AM 51.1 °F 33.1 °F 50% 29.77 in 10.0 mi NNE 13.8 mph - N/A   Clear
7:52 AM 50.0 °F 34.0 °F 54% 29.78 in 10.0 mi North 12.7 mph - N/A   Clear
8:52 AM 51.1 °F 35.1 °F 54% 29.78 in 10.0 mi North 13.8 mph - N/A   Clear
9:52 AM 53.1 °F 35.1 °F 50% 29.78 in 10.0 mi NNE 13.8 mph 24.2 mph N/A   Clear
10:52 AM 55.9 °F 35.1 °F 45% 29.78 in 10.0 mi NNE 18.4 mph 28.8 mph N/A   Clear
11:52 AM 59.0 °F 34.0 °F 39% 29.77 in 10.0 mi NNE 18.4 mph 36.8 mph N/A   Clear
12:52 PM 62.1 °F 33.1 °F 34% 29.77 in 10.0 mi NNE 20.7 mph 35.7 mph N/A   Clear
1:52 PM 62.1 °F 32.0 °F 32% 29.78 in 10.0 mi NE 20.7 mph 31.1 mph N/A   Mostly Cloudy
2:52 PM 63.0 °F 34.0 °F 34% 29.79 in 10.0 mi East 15.0 mph - N/A   Partly Cloudy
3:52 PM 63.0 °F 34.0 °F 34% 29.81 in 10.0 mi ENE 13.8 mph 25.3 mph N/A   Scattered Clouds
4:52 PM 63.0 °F 33.1 °F 33% 29.83 in 10.0 mi ENE 13.8 mph 25.3 mph N/A   Partly Cloudy
5:52 PM 62.1 °F 30.9 °F 31% 29.84 in 10.0 mi ENE 13.8 mph 25.3 mph N/A   Overcast
6:52 PM 61.0 °F 33.1 °F 35% 29.86 in 10.0 mi ENE 9.2 mph 21.9 mph N/A   Overcast
7:52 PM 61.0 °F 34.0 °F 36% 29.88 in 10.0 mi NE 8.1 mph - N/A   Overcast
8:52 PM 57.9 °F 34.0 °F 41% 29.92 in 10.0 mi East 9.2 mph - N/A   Overcast
9:52 PM 54.0 °F 37.9 °F 55% 29.96 in 10.0 mi ESE 8.1 mph - N/A   Overcast
10:52 PM 52.0 °F 39.0 °F 61% 30.00 in 10.0 mi ESE 9.2 mph - N/A   Overcast
11:52 PM 48.0 °F 37.0 °F 66% 30.03 in 10.0 mi Calm Calm - N/A   Clear